Voltar ao catálogo

BB 2

AtivoCiênciaPO
NORAD 56170·PAYLOAD·🇺🇸 United States

Lançado Apr 2, 2023 de Vandenberg Space Force Base

Loading…

Próximas Passagens (próximas 24 horas)

TLE

EnvelhecendoSource: Space-Track

Época: Sep 10, 2026, 17:47 UTC

1 56170U 23050J   26253.74145083  .00000416  00000-0  12482-3 0  9990
2 56170  81.0034 349.8747 0007486  55.8410 304.3486 14.41286348173917

Acompanhe BB 2 em tempo real com AllMySat

Download on the App Store